Banff, Alberta

9:45 PM MDT on May 25, 2017 (GMT -0600)
Banff

Weather History for CWZG - August, 2013

Change the Weather History Date:

Tuesday, August 20, 2013

  Actual Average Record
Temperature  
Mean Temperature 50 °F -  
Max Temperature 65 °F - - ()
Min Temperature 35 °F - - ()
Degree Days  
Heating Degree Days 15    
Moisture  
Dew Point 30 °F    
Average Humidity 42    
Maximum Humidity 91    
Minimum Humidity 22    
Precipitation  
Precipitation 0.00 in - - ()
Sea Level Pressure  
Sea Level Pressure 29.97 in    
Wind  
Wind Speed 4 mph ()    
Max Wind Speed 14 mph    
Max Gust Speed 25 mph    
T = Trace of Precipitation, MM = Missing Value Source: Averaged Metar Reports

Daily Weather History Graph

Daily Weather History Graph

Search for Another Location

Airport or City:

Trip Planner

Search our weather history database for the weather conditions in past years. The results will help you decide how hot, cold, wet, or windy it might be!

Date:

Astronomy

Aug. 20, 2013 Rise Set
Actual Time 6:37 AM MDT 8:52 PM MDT
Civil Twilight 6:00 AM MDT 9:28 PM MDT
Nautical Twilight 5:14 AM MDT 10:14 PM MDT
Astronomical Twilight 4:21 AM MDT 11:06 PM MDT
Moon 8:18 PM MDT (8/20) 6:15 AM MDT (8/20)
Length of Visible Light 15h 28m
Length of Day
14h 15m
Full, 100% of the Moon is Illuminated
Aug 20
Full
Aug 20
Full
Aug 28
Last Quarter
Sep 5
New
Sep 12
First Quarter

Hourly Weather History & Observations

Time (MDT) Temp. Dew Point Humidity Pressure Visibility Wind Dir Wind Speed Gust Speed Precip Events Conditions
12:00 AM 54.5 °F 31.3 °F 41% 29.90 in - SSW 2.3 mph - N/A   Unknown
1:00 AM 53.8 °F 33.4 °F 46% 29.90 in - SW 2.3 mph - N/A   Unknown
2:00 AM 50.9 °F 34.7 °F 54% 29.91 in - SSW 4.6 mph - N/A   Unknown
3:00 AM 51.4 °F 34.3 °F 52% 29.91 in - SSW 5.8 mph - N/A   Unknown
4:00 AM 50.4 °F 33.4 °F 52% 29.92 in - SSW 3.5 mph - N/A   Unknown
5:00 AM 41.2 °F 33.8 °F 75% 29.96 in - NNE 1.2 mph - N/A   Unknown
6:00 AM 37.0 °F 33.4 °F 87% 29.98 in - South 1.2 mph - N/A   Unknown
7:00 AM 35.4 °F 33.1 °F 91% 30.00 in - NNE 1.2 mph - N/A   Unknown
8:00 AM 42.6 °F 36.9 °F 80% 29.98 in - NE 2.3 mph - N/A   Unknown
9:00 AM 54.3 °F 36.0 °F 50% 29.96 in - SW 6.9 mph - N/A   Unknown
10:00 AM 61.2 °F 31.8 °F 33% 29.94 in - WSW 6.9 mph - N/A   Unknown
11:00 AM 62.8 °F 29.7 °F 29% 29.94 in - SW 11.5 mph 19.6 mph N/A   Unknown
12:00 PM 65.1 °F 28.8 °F 26% 29.94 in - SW 13.8 mph 25.3 mph N/A   Unknown
1:00 PM 65.1 °F 29.7 °F 26% 29.96 in - WSW 6.9 mph 20.7 mph N/A   Unknown
2:00 PM 64.8 °F 29.7 °F 27% 29.96 in - WSW 9.2 mph 21.9 mph N/A   Unknown
3:00 PM 64.2 °F 26.6 °F 24% 29.97 in - WSW 9.2 mph 23.0 mph N/A   Unknown
4:00 PM 64.9 °F 28.8 °F 26% 30.00 in - West 8.1 mph - N/A   Unknown
5:00 PM 63.7 °F 27.0 °F 25% 30.02 in - West 5.8 mph - N/A   Unknown
6:00 PM 64.4 °F 24.4 °F 22% 30.04 in - West 8.1 mph 17.3 mph N/A   Unknown
7:00 PM 62.8 °F 25.3 °F 24% 30.03 in - NW 5.8 mph - N/A   Unknown
8:00 PM 60.4 °F 26.4 °F 27% 30.02 in - NW 6.9 mph 20.7 mph N/A   Unknown
9:00 PM 59.2 °F 25.5 °F 28% 30.02 in - WNW 4.6 mph - N/A   Unknown
10:00 PM 57.2 °F 25.3 °F 29% 30.04 in - West 3.5 mph - N/A   Unknown
11:00 PM 56.5 °F 25.9 °F 31% 30.06 in - WNW 4.6 mph - N/A   Unknown